OK1PHU-5 Weather Reports


time (UTC)temp
C
wind
direction
speed
KPH
gust
KPH
rain 1hr
cm
rain 24hr
cm
rain mn
cm
humidity
%
barometer
mb
20260507192753 -17 0 0.0 0.0 0.00 0.00 0.00 98 1012.1
20260507191753 -17 0 0.0 0.0 0.00 0.00 0.00 97 1012.0
20260507190753 -17 0 0.0 0.0 0.00 0.00 0.00 96 1011.8
20260507185753 -17 0 0.0 0.0 0.00 0.00 0.00 95 1011.7
20260507184753 -17 0 0.0 0.0 0.00 0.00 0.00 94 1011.7
20260507182750 -17 0 0.0 0.0 0.00 0.00 0.00 86 1011.0
20260507181750 -17 0 0.0 0.0 0.00 0.00 0.00 84 1010.8
20260507180750 -17 0 0.0 0.0 0.00 0.00 0.00 82 1010.5
20260507175750 -17 0 0.0 0.0 0.00 0.00 0.00 80 1010.3
20260507174750 -17 0 0.0 0.0 0.00 0.00 0.00 78 1010.1
20260507172747 -17 0 0.0 0.0 0.00 0.00 0.00 73 1009.8
20260507171747 -17 0 0.0 0.0 0.00 0.00 0.00 70 1009.5
20260507170747 -17 0 0.0 0.0 0.00 0.00 0.00 70 1009.4
20260507165746 -17 0 0.0 0.0 0.00 0.00 0.00 71 1009.2
20260507164747 -17 0 0.0 0.0 0.00 0.00 0.00 71 1009.3
20260507162743 -17 0 0.0 0.0 0.00 0.00 0.00 73 1009.1
20260507161743 -17 0 0.0 0.0 0.00 0.00 0.00 73 1009.0
20260507160743 -17 0 0.0 0.0 0.00 0.00 0.00 74 1008.8
20260507155743 -17 0 0.0 0.0 0.00 0.00 0.00 74 1008.8
20260507154743 -17 0 0.0 0.0 0.00 0.00 0.00 73 1008.8
20260507152740 -17 0 0.0 0.0 0.00 0.00 0.00 74 1008.9
20260507151740 -17 0 0.0 0.0 0.00 0.00 0.00 73 1008.6
20260507150740 -17 0 0.0 0.0 0.00 0.00 0.00 74 1008.6
20260507145740 -17 0 0.0 0.0 0.00 0.00 0.00 72 1008.3
20260507144740 -17 0 0.0 0.0 0.00 0.00 0.00 71 1008.3
20260507142737 -17 0 0.0 0.0 0.00 0.00 0.00 69 1008.1
20260507141737 -17 0 0.0 0.0 0.00 0.00 0.00 69 1008.2
20260507140737 -17 0 0.0 0.0 0.00 0.00 0.00 70 1008.4
20260507135737 -17 0 0.0 0.0 0.00 0.00 0.00 71 1008.5
20260507134737 -17 0 0.0 0.0 0.00 0.00 0.00 72 1008.4
20260507132734 -17 0 0.0 0.0 0.00 0.00 0.00 72 1008.3
20260507131734 -17 0 0.0 0.0 0.00 0.00 0.00 71 1008.5
20260507130733 -17 0 0.0 0.0 0.00 0.00 0.00 70 1008.3
20260507125733 -17 0 0.0 0.0 0.00 0.00 0.00 69 1008.4
20260507124733 -17 0 0.0 0.0 0.00 0.00 0.00 68 1008.1
20260507122730 -17 0 0.0 0.0 0.00 0.00 0.00 67 1007.9
20260507121730 -17 0 0.0 0.0 0.00 0.00 0.00 68 1008.0
20260507120730 -17 0 0.0 0.0 0.00 0.00 0.00 71 1008.1
20260507115730 -17 0 0.0 0.0 0.00 0.00 0.00 71 1008.0
20260507114730 -17 0 0.0 0.0 0.00 0.00 0.00 70 1008.0
20260507113727 -17 0 0.0 0.0 0.00 0.00 0.00 70 1008.2
20260507112727 -17 0 0.0 0.0 0.00 0.00 0.00 69 1007.8
20260507111727 -17 0 0.0 0.0 0.00 0.00 0.00 72 1008.3
20260507110727 -17 0 0.0 0.0 0.00 0.00 0.00 70 1008.1
20260507105727 -17 0 0.0 0.0 0.00 0.00 0.00 69 1007.7
20260507104727 -17 0 0.0 0.0 0.00 0.00 0.00 70 1007.7
20260507102724 -17 0 0.0 0.0 0.00 0.00 0.00 71 1007.7
20260507101724 -17 0 0.0 0.0 0.00 0.00 0.00 70 1007.8
20260507100724 -17 0 0.0 0.0 0.00 0.00 0.00 70 1007.5
20260507095724 -17 0 0.0 0.0 0.00 0.00 0.00 70 1007.5
20260507094724 -17 0 0.0 0.0 0.00 0.00 0.00 69 1007.0
20260507092721 -17 0 0.0 0.0 0.00 0.00 0.00 71 1007.5
20260507091720 -17 0 0.0 0.0 0.00 0.00 0.00 75 1007.3
20260507090720 -17 0 0.0 0.0 0.00 0.00 0.00 75 1007.7
20260507085720 -17 0 0.0 0.0 0.00 0.00 0.00 72 1007.2
20260507084720 -17 0 0.0 0.0 0.00 0.00 0.00 73 1006.9
20260507083717 -17 0 0.0 0.0 0.00 0.00 0.00 80 1007.6
20260507082717 -17 0 0.0 0.0 0.00 0.00 0.00 80 1007.6
20260507081717 -17 0 0.0 0.0 0.00 0.00 0.00 80 1007.7
20260507080717 -17 0 0.0 0.0 0.00 0.00 0.00 84 1007.5
20260507075717 -17 0 0.0 0.0 0.00 0.00 0.00 90 1007.5
20260507074717 -17 0 0.0 0.0 0.00 0.00 0.00 95 1008.4
20260507073714 -17 0 0.0 0.0 0.00 0.00 0.00 94 1008.3
20260507072714 -17 0 0.0 0.0 0.00 0.00 0.00 97 1008.2
20260507071714 -17 0 0.0 0.0 0.00 0.00 0.00 98 1008.4
20260507070714 -17 0 0.0 0.0 0.00 0.00 0.00 97 1008.4
20260507065714 -17 0 0.0 0.0 0.00 0.00 0.00 96 1008.2
20260507064714 -17 0 0.0 0.0 0.00 0.00 0.00 96 1008.1
20260507062711 -17 0 0.0 0.0 0.00 0.00 0.00 92 1007.5
20260507061711 -17 0 0.0 0.0 0.00 0.00 0.00 92 1007.1
20260507060710 -17 0 0.0 0.0 0.00 0.00 0.00 90 1007.1
20260507055710 -17 0 0.0 0.0 0.00 0.00 0.00 89 1006.6
20260507054710 -17 0 0.0 0.0 0.00 0.00 0.00 90 1006.8
20260507052707 -17 0 0.0 0.0 0.00 0.00 0.00 93 1006.7
20260507051707 -17 0 0.0 0.0 0.00 0.00 0.00 97 1006.7
20260507050707 -17 0 0.0 0.0 0.00 0.00 0.00 97 1006.8
20260507045707 -17 0 0.0 0.0 0.00 0.00 0.00 99 1006.9
20260507044707 -17 0 0.0 0.0 0.00 0.00 0.00 99 1006.8
20260507043704 -17 0 0.0 0.0 0.00 0.00 0.00 99 1007.1
20260507042704 -17 0 0.0 0.0 0.00 0.00 0.00 99 1007.1
20260507041704 -17 0 0.0 0.0 0.00 0.00 0.00 99 1006.9
20260507040704 -17 0 0.0 0.0 0.00 0.00 0.00 99 1006.4
20260507035704 -17 0 0.0 0.0 0.00 0.00 0.00 99 1006.9
20260507034704 -17 0 0.0 0.0 0.00 0.00 0.00 99 1006.9
20260507032701 -17 0 0.0 0.0 0.00 0.00 0.00 99 1006.7
20260507031701 -17 0 0.0 0.0 0.00 0.00 0.00 99 1006.7
20260507030701 -17 0 0.0 0.0 0.00 0.00 0.00 99 1006.7
20260507025701 -17 0 0.0 0.0 0.00 0.00 0.00 99 1006.6
20260507024701 -17 0 0.0 0.0 0.00 0.00 0.00 99 1006.6
20260507023657 -17 0 0.0 0.0 0.00 0.00 0.00 99 1006.5
20260507022657 -17 0 0.0 0.0 0.00 0.00 0.00 99 1006.4
20260507021657 -17 0 0.0 0.0 0.00 0.00 0.00 99 1006.4
20260507020657 -17 0 0.0 0.0 0.00 0.00 0.00 99 1006.4
20260507015657 -17 0 0.0 0.0 0.00 0.00 0.00 99 1006.3
20260507014657 -17 0 0.0 0.0 0.00 0.00 0.00 99 1006.3
20260507012654 -17 0 0.0 0.0 0.00 0.00 0.00 99 1006.0
20260507011654 -17 0 0.0 0.0 0.00 0.00 0.00 99 1006.0
20260507010654 -17 0 0.0 0.0 0.00 0.00 0.00 99 1005.8
20260507005654 -17 0 0.0 0.0 0.00 0.00 0.00 99 1005.7
20260507004654 -17 0 0.0 0.0 0.00 0.00 0.00 99 1005.6
20260507002651 -17 0 0.0 0.0 0.00 0.00 0.00 99 1005.5
20260507001651 -17 0 0.0 0.0 0.00 0.00 0.00 99 1005.2
20260507000651 -17 0 0.0 0.0 0.00 0.00 0.00 99 1005.4
20260506235651 -17 0 0.0 0.0 0.00 0.00 0.00 99 1005.1
20260506234651 -17 0 0.0 0.0 0.00 0.00 0.00 99 1005.1
20260506232648 -17 0 0.0 0.0 0.00 0.00 0.00 99 1004.6
20260506231648 -17 0 0.0 0.0 0.00 0.00 0.00 99 1004.5
20260506230648 -17 0 0.0 0.0 0.00 0.00 0.00 99 1004.6
20260506225648 -17 0 0.0 0.0 0.00 0.00 0.00 99 1004.8
20260506224648 -17 0 0.0 0.0 0.00 0.00 0.00 99 1004.6
20260506223644 -17 0 0.0 0.0 0.00 0.00 0.00 99 1004.4
20260506222644 -17 0 0.0 0.0 0.00 0.00 0.00 99 1004.7
20260506221644 -17 0 0.0 0.0 0.00 0.00 0.00 99 1004.6
20260506220644 -17 0 0.0 0.0 0.00 0.00 0.00 99 1004.5
20260506215644 -17 0 0.0 0.0 0.00 0.00 0.00 99 1004.3
20260506214644 -17 0 0.0 0.0 0.00 0.00 0.00 99 1004.2
20260506212641 -17 0 0.0 0.0 0.00 0.00 0.00 99 1002.9
20260506211641 -17 0 0.0 0.0 0.00 0.00 0.00 99 1002.8
20260506210641 -17 0 0.0 0.0 0.00 0.00 0.00 99 1002.8
20260506205641 -17 0 0.0 0.0 0.00 0.00 0.00 99 1002.7
20260506204641 -17 0 0.0 0.0 0.00 0.00 0.00 99 1002.9
20260506202638 -17 0 0.0 0.0 0.00 0.00 0.00 99 1003.1
20260506201638 -17 0 0.0 0.0 0.00 0.00 0.00 99 1003.0
20260506200638 -17 0 0.0 0.0 0.00 0.00 0.00 99 1003.2
20260506195638 -17 0 0.0 0.0 0.00 0.00 0.00 99 1003.3
20260506194638 -17 0 0.0 0.0 0.00 0.00 0.00 99 1003.1